RH
104 98 79 54 36 33 37 44 50 52 50 49 51 54 57 58 55 51 50 50 50 52 57 61 58 55 60 66 70 72 70 68 69 72 72 70 70 71 65 60 58 48 39 39 38 35 34 31 29 24 17 17 18 19 17 15 16 17 16 15 14 15 14 13 14 13 13 15 16 18 23 27 27 31
90 69 46 33 33 37 43 48 51 50 48 50 56 58 60 61 58 54 54 56 57 59 62 63 59 58 64 72 76 78 73 70 75 79 76 72 71 70 64 61 60 50 40 40 39 37 36 32 29 24 19 17 18 19 18 16 15 17 17 16 15 15 15 13 14 13 13 15 16 17 20 25 27 29
53 38 32 34 39 44 48 49 47 47 47 51 58 59 60 60 57 56 62 68 69 67 66 65 62 63 72 79 84 84 77 72 78 82 77 73 70 67 62 61 60 51 42 41 39 38 38 35 31 27 21 18 18 18 19 18 16 17 18 17 17 16 16 14 13 14 14 14 16 17 19 24 26 28
33 33 35 40 45 49 51 47 44 45 45 50 57 58 57 57 56 61 72 80 79 73 69 68 67 71 79 86 92 92 82 76 81 83 78 73 71 66 61 59 59 52 44 42 39 38 41 39 34 31 24 19 18 18 18 19 18 17 18 18 18 17 17 16 14 14 14 14 15 16 17 22 25 27
35 36 39 47 51 50 48 44 43 44 45 50 55 56 57 56 58 67 81 88 84 77 74 73 72 77 85 93 99 97 87 81 83 84 79 76 72 66 59 58 59 53 44 42 41 39 42 43 39 35 28 20 18 17 17 18 19 19 18 19 19 18 17 17 15 14 14 14 14 16 17 20 25 26
39 42 49 55 52 46 44 42 42 43 47 52 55 57 57 57 62 75 89 92 86 80 81 79 76 81 90 99 103 98 87 83 85 84 80 78 73 64 57 56 58 51 44 44 43 40 42 46 45 40 33 23 18 17 16 16 18 20 20 19 19 18 18 17 16 15 14 14 14 15 16 19 23 25
51 55 58 55 48 43 41 41 43 45 48 52 54 58 58 59 70 85 95 96 89 85 86 84 81 87 95 100 105 98 85 83 85 82 80 78 71 62 56 56 56 49 45 47 47 41 41 46 47 42 34 25 19 17 16 16 17 20 21 20 19 18 17 17 17 15 15 14 13 14 16 17 21 24
63 57 54 50 45 42 42 43 43 44 48 51 54 58 59 65 80 93 99 98 92 90 93 89 88 95 99 101 104 96 83 85 87 81 79 76 69 63 59 57 55 49 49 53 52 44 41 45 46 41 34 27 21 18 16 15 16 18 21 21 20 18 17 17 17 16 15 14 13 13 15 16 18 23
57 50 51 50 46 46 46 45 43 44 48 51 54 58 61 73 89 98 102 100 95 97 99 94 94 100 101 103 104 91 82 89 91 83 78 73 67 65 62 58 55 54 56 59 56 46 39 43 44 40 34 28 23 19 17 15 15 16 18 21 21 18 16 16 16 16 15 14 13 12 14 16 16 20
56 58 63 56 49 49 47 45 44 45 48 50 56 59 65 82 96 101 104 102 100 102 101 97 99 101 101 104 103 89 83 90 90 84 78 71 68 69 66 61 59 61 64 65 60 48 39 42 44 40 35 29 23 20 18 16 15 16 17 18 20 19 16 15 15 16 15 14 14 11 13 16 15 18
71 71 69 56 49 48 44 44 45 45 48 54 58 60 73 92 100 101 105 103 102 105 101 98 101 101 100 104 100 87 84 90 87 80 76 72 75 78 71 65 64 67 69 69 65 52 41 42 44 40 34 28 23 20 18 17 15 16 18 17 18 18 16 14 13 15 15 13 14 12 11 15 15 16
81 69 61 53 49 46 43 44 45 45 50 58 61 65 81 97 100 102 105 104 104 104 100 99 101 101 102 103 98 86 85 91 86 77 74 73 79 81 75 70 70 72 72 72 69 57 44 44 45 40 32 26 23 20 18 17 15 15 17 17 17 17 15 14 12 13 15 13 14 12 10 13 14 15
84 60 53 53 48 46 47 46 45 47 55 63 64 68 83 96 101 104 104 105 106 103 100 101 102 104 106 103 96 84 84 91 86 77 76 76 79 81 79 76 75 76 78 76 71 60 47 45 45 38 31 25 23 21 18 17 16 16 17 16 16 15 13 13 11 10 14 13 13 13 10 12 13 13
86 60 54 54 50 50 53 50 47 51 60 65 64 68 84 98 105 107 105 105 104 102 101 102 102 106 109 103 92 83 84 89 83 77 78 81 85 85 83 82 82 86 88 81 73 63 51 45 43 37 30 25 23 21 19 18 17 18 19 17 15 14 11 11 10 9 11 12 14 13 10 11 12 12
89 70 64 61 57 58 58 55 55 61 66 65 64 75 91 102 107 111 108 103 100 101 102 102 105 110 109 100 89 83 85 88 83 81 84 89 92 87 81 83 86 91 92 83 73 66 53 45 43 37 30 26 24 23 20 19 18 19 20 18 15 13 10 9 9 8 9 11 13 14 10 10 11 11
88 76 72 67 62 62 64 65 65 67 70 72 78 90 100 104 108 111 107 101 100 102 101 102 109 111 105 96 87 83 86 87 86 88 92 95 95 85 77 81 85 89 90 81 73 68 56 47 43 37 30 26 24 23 21 20 19 18 19 19 15 11 8 8 8 8 8 9 11 13 11 10 10 11
84 75 72 67 63 69 78 79 72 70 78 88 95 100 103 105 108 108 103 99 100 102 102 106 110 108 101 94 86 82 86 89 92 97 98 99 98 85 75 79 86 87 84 78 74 69 58 49 44 37 31 26 24 24 22 21 20 17 18 18 15 10 7 7 8 8 7 8 9 11 12 9 9 11
85 73 70 72 77 87 96 95 88 86 92 99 102 104 106 106 107 105 101 100 101 101 104 110 111 106 101 93 83 82 88 92 97 102 101 101 99 86 73 78 88 89 81 74 73 70 61 53 46 38 32 28 25 23 22 22 21 18 17 18 16 11 7 6 8 8 7 7 7 9 11 10 8 10
90 71 70 84 95 100 102 102 100 98 99 101 105 110 110 106 105 103 100 101 104 103 107 113 111 104 98 89 82 87 95 97 98 101 101 100 97 85 73 78 92 94 83 73 73 72 64 55 49 41 34 29 25 23 23 22 21 19 17 17 16 11 8 7 7 8 7 6 7 7 9 10 8 9
89 69 76 95 102 100 101 102 100 99 101 106 110 112 108 104 103 101 100 104 106 103 106 113 109 100 93 86 84 92 100 100 99 100 100 99 95 84 76 81 94 98 88 75 73 74 66 56 53 46 36 29 26 23 23 23 22 20 16 16 15 11 9 7 6 8 7 6 6 5 7 9 8 8
99 87 92 101 101 99 101 101 100 101 105 110 111 109 104 103 103 101 102 106 104 101 107 111 103 95 91 86 84 91 99 100 100 99 98 98 95 85 78 82 92 97 90 77 73 76 69 58 54 49 38 31 26 24 24 24 23 21 17 15 13 10 9 8 6 7 7 5 6 5 5 8 8 8
110 107 107 104 102 104 102 101 103 105 106 107 106 104 102 103 104 103 103 104 101 103 108 106 97 93 91 85 82 88 97 100 99 97 95 96 95 86 78 81 90 97 94 80 74 78 73 59 54 49 41 34 29 25 25 25 24 22 19 16 12 9 8 8 6 6 6 5 5 5 5 6 8 8
106 109 109 104 104 106 103 101 103 104 103 103 102 102 103 103 103 103 103 103 103 106 107 100 94 92 89 84 80 86 98 101 98 94 92 92 93 85 78 81 89 99 100 86 76 78 72 59 53 48 41 36 31 26 24 23 23 22 19 16 13 9 7 7 6 6 5 5 5 5 5 5 7 8
103 104 106 105 106 107 104 105 106 104 103 103 104 104 102 102 102 102 101 102 104 107 104 96 93 91 88 85 81 86 99 102 95 91 88 89 91 84 79 83 88 97 101 89 77 76 69 57 53 49 40 35 31 27 24 23 21 20 19 17 15 11 8 7 6 6 5 5 5 5 5 4 6 8
104 102 102 104 107 106 104 106 106 104 103 104 107 107 102 101 105 102 100 103 105 104 99 93 93 93 90 87 83 88 101 101 93 90 87 87 88 83 81 88 92 97 101 88 76 75 66 54 54 52 43 35 31 28 26 24 21 19 18 17 14 12 9 7 7 6 6 5 4 5 5 4 5 8
104 104 102 103 104 103 104 104 102 101 102 102 106 108 103 102 104 101 100 104 103 99 95 92 95 97 94 89 85 90 102 100 93 92 88 85 86 82 82 90 94 97 98 87 76 75 67 54 52 51 43 36 33 30 28 27 25 21 18 15 14 12 9 8 7 6 6 6 4 5 6 4 5 8
106 107 105 104 103 102 103 104 101 100 102 102 104 106 103 102 103 101 102 103 100 98 97 97 101 102 96 90 87 93 103 100 94 93 90 87 87 83 83 91 95 95 95 86 78 78 72 58 51 47 41 35 33 31 29 29 27 25 22 17 14 12 9 7 8 7 6 7 5 5 6 5 5 8
107 105 104 105 105 103 103 104 103 101 101 102 104 104 102 101 102 102 102 103 103 102 101 103 107 104 96 91 90 97 106 102 94 94 92 89 88 85 84 93 98 94 90 86 82 83 78 65 56 48 39 33 33 32 29 28 28 28 27 21 14 13 11 7 8 7 6 7 6 5 6 5 5 8
106 104 105 106 106 106 105 104 104 103 103 103 104 105 103 102 102 102 102 104 107 106 104 107 109 104 95 90 91 99 106 101 94 93 93 92 93 89 88 94 95 89 87 89 87 86 83 73 64 56 43 31 31 32 31 29 28 29 31 26 17 13 12 8 8 8 7 7 7 5 6 6 6 7
106 107 108 106 105 104 104 104 105 105 104 104 104 104 103 102 102 102 103 104 105 106 108 111 109 101 92 88 91 100 105 100 93 92 93 96 97 92 90 94 93 88 90 93 92 90 87 78 69 64 52 35 29 31 32 31 29 28 31 30 21 15 13 10 9 9 7 7 7 6 6 7 7 8
101 101 101 102 102 104 106 107 107 104 103 104 104 102 103 103 103 104 106 105 103 106 113 114 106 96 89 87 93 101 104 100 94 93 96 99 97 93 92 93 92 91 96 100 97 92 89 80 70 67 61 45 32 30 30 31 30 29 31 31 25 18 15 12 11 10 9 8 8 7 7 7 7 9
95 94 96 100 103 106 109 110 109 105 102 102 102 105 107 105 104 106 108 106 106 111 116 111 101 92 87 88 95 102 103 100 97 95 97 98 95 92 92 89 90 95 103 107 104 97 90 81 69 65 63 52 37 30 29 30 30 28 31 33 29 21 16 14 13 11 10 10 9 8 8 8 8 10
95 95 98 101 104 108 110 109 107 104 102 103 106 110 109 104 104 108 110 110 113 116 112 103 96 90 86 89 98 103 103 102 99 96 96 95 92 93 91 84 85 96 104 109 110 105 97 85 71 63 61 53 41 32 28 29 30 29 29 34 35 29 21 16 15 13 11 11 10 9 9 9 9 11
98 100 102 104 107 110 110 107 105 104 106 109 110 109 106 104 107 112 113 114 115 111 104 97 92 87 86 94 103 106 104 101 97 94 94 94 94 95 90 81 84 97 104 108 111 109 103 95 82 68 60 51 43 36 31 28 30 29 28 31 37 36 28 20 16 16 13 12 12 11 10 11 10 12
97 102 106 109 110 110 108 109 111 111 111 111 109 108 108 109 110 111 111 111 108 102 96 93 88 86 90 98 104 105 102 97 93 91 92 94 96 95 89 83 89 99 103 107 113 111 105 101 92 78 66 56 47 41 36 32 31 31 29 29 33 39 38 29 19 17 15 14 14 12 11 12 12 12
96 101 106 108 109 109 109 111 111 109 107 109 110 111 110 108 107 108 108 106 102 97 93 88 86 89 96 100 102 104 101 94 91 90 90 94 100 99 92 88 93 100 103 107 115 116 109 101 91 80 71 63 53 46 41 36 33 32 31 30 31 36 43 40 28 20 17 15 15 14 13 13 13 12
94 98 102 104 105 105 106 105 105 105 107 110 111 110 108 107 106 106 105 102 98 94 89 86 87 94 101 103 105 106 102 92 86 86 91 98 103 102 96 92 95 101 105 110 116 118 112 101 87 75 70 65 57 49 44 39 35 31 30 32 32 35 43 47 38 26 19 16 15 15 14 14 13 13
94 98 101 102 101 101 101 101 102 108 112 111 109 107 107 106 105 104 102 98 94 89 86 88 93 99 104 105 104 103 97 86 81 87 97 103 104 99 96 97 100 103 106 111 115 116 110 99 82 70 67 65 58 51 46 42 39 35 31 31 34 37 42 48 44 33 24 19 17 16 15 15 14 13
97 100 101 101 100 100 101 102 105 109 110 108 106 105 105 105 103 101 97 91 87 86 88 93 99 102 103 100 96 92 86 81 84 95 101 100 97 94 96 101 106 106 106 108 110 109 104 92 78 67 66 65 57 49 45 41 39 38 35 32 33 37 40 44 44 39 31 24 19 17 16 16 16 14
99 101 100 100 99 99 101 104 107 107 106 105 105 104 103 103 100 96 89 84 84 89 94 98 99 97 92 86 82 79 80 85 95 101 97 89 85 85 91 99 104 104 103 102 101 100 94 84 72 65 66 66 58 47 41 37 35 34 33 30 29 32 36 40 43 42 36 29 24 19 17 16 16 16
99 99 99 99 99 101 103 105 106 105 104 104 103 101 100 98 93 87 83 83 88 94 97 94 89 82 77 74 73 74 82 93 97 92 83 78 77 79 85 93 95 93 92 90 87 85 80 71 66 64 64 63 58 48 41 37 34 31 30 29 27 28 32 37 43 45 42 36 29 23 20 17 15 16
99 98 100 101 101 102 104 105 106 105 102 100 98 97 94 88 82 80 84 89 93 92 84 75 69 68 69 73 75 77 83 89 85 76 69 69 71 74 78 81 81 80 79 77 75 73 69 64 63 63 60 57 55 50 43 39 36 33 31 31 29 28 29 33 39 44 45 42 36 29 24 21 17 15
101 99 100 100 103 106 108 105 102 100 98 95 92 87 80 75 77 84 89 88 80 70 60 55 58 63 69 74 77 78 76 74 69 65 64 64 66 67 68 67 67 67 68 69 69 68 66 64 63 62 58 54 52 48 42 38 37 34 32 32 31 30 29 30 34 40 45 46 43 35 28 25 21 16
100 99 101 103 106 106 102 97 94 93 90 84 77 72 71 74 79 81 76 66 55 48 46 48 53 60 65 69 70 68 64 60 58 58 59 60 61 61 60 59 60 61 63 66 68 68 68 66 63 60 55 50 47 44 39 36 36 35 32 33 33 32 31 30 31 35 41 47 49 45 35 29 26 21
99 102 103 103 100 95 91 88 85 80 74 70 68 70 71 69 64 57 50 44 42 42 43 45 49 53 56 58 58 56 54 54 55 56 56 57 58 58 57 57 59 62 64 66 68 69 69 67 62 57 52 46 42 40 37 35 36 36 33 33 34 34 34 33 31 31 35 41 48 51 45 36 30 26
Wind_Speed
58 59 60 58 56 52 50 47 44 44 46 48 50 53 55 56 58 58 58 59 60 61 63 65 68 69 71 73 75 76 77 76 75 73 73 73 72 71 71 72 73 73 70 65 61 58 57 56 53 51 47 42 41 42 41 37 34 34 35 32 29 28 28 27 30 35 40 46 51 55 59 64 67 72
58 58 57 54 51 48 46 44 43 44 46 48 51 53 54 56 58 59 60 61 63 64 65 67 69 72 73 76 78 79 79 78 76 75 75 74 72 71 71 71 72 72 70 66 61 58 58 57 55 52 49 46 42 40 40 38 34 31 32 32 29 27 28 28 29 34 39 45 51 54 58 63 66 71
56 55 53 50 47 45 44 43 44 45 46 49 52 54 54 56 58 60 63 65 65 66 67 69 71 73 75 78 80 82 82 80 77 76 75 74 73 72 71 71 70 70 70 66 61 58 58 58 57 55 52 49 45 41 39 38 35 30 29 30 29 27 28 28 29 32 38 44 50 54 58 63 66 70
53 51 49 46 44 43 43 44 45 46 47 50 53 55 55 56 59 62 65 67 68 68 69 70 72 74 76 79 81 83 84 81 78 77 76 75 74 73 72 71 69 68 68 67 62 59 59 59 59 57 54 51 48 43 39 36 35 31 28 27 28 27 27 29 29 31 37 43 49 54 57 62 66 69
49 48 45 43 43 43 44 44 45 46 48 52 54 56 56 57 60 63 67 70 70 69 70 72 73 75 77 79 81 84 84 82 79 77 76 75 75 74 72 70 68 67 67 66 63 60 59 60 60 59 57 54 50 45 39 35 33 32 28 26 26 26 26 28 29 31 36 42 48 53 57 62 66 69
47 46 44 43 43 44 44 45 46 48 51 53 56 57 57 59 62 66 70 72 72 71 72 73 74 76 78 80 82 84 84 81 78 77 76 75 74 73 72 70 68 66 66 65 64 61 59 59 59 58 58 56 51 46 41 35 32 31 29 26 25 25 26 27 29 30 35 42 48 53 57 62 66 69
45 45 44 44 45 45 45 46 48 50 52 54 57 58 59 61 65 68 72 75 73 72 73 74 76 77 78 80 82 84 84 80 78 76 75 75 74 72 72 70 68 67 66 65 65 62 60 59 58 56 57 56 53 47 43 37 32 29 28 27 25 24 25 27 29 30 35 41 47 52 57 61 66 68
46 47 46 46 46 47 48 49 50 51 53 55 57 59 61 64 68 71 75 76 75 74 74 76 77 78 79 80 82 84 83 80 78 76 75 74 73 72 72 71 69 68 67 67 67 64 61 58 57 55 55 56 54 50 45 39 34 29 26 27 26 24 24 26 28 30 34 40 46 51 56 61 65 68
48 48 48 48 49 50 51 51 51 52 53 56 58 60 63 67 70 73 76 77 76 75 75 76 77 78 79 80 82 83 82 79 78 77 75 73 72 71 72 72 71 70 69 69 68 66 62 59 57 55 55 55 55 52 48 42 36 31 26 25 25 25 24 25 28 30 34 39 45 50 55 60 65 67
50 50 51 51 51 52 52 53 52 53 55 58 60 62 65 69 71 74 77 78 76 75 76 77 78 79 80 81 82 83 81 77 76 75 74 73 72 72 72 73 72 71 70 70 69 67 64 60 59 56 55 55 55 52 49 44 39 34 29 24 23 25 25 24 27 30 34 38 43 49 54 59 64 67
51 51 52 53 52 53 53 53 53 54 56 60 62 64 67 70 72 75 78 77 76 76 76 77 78 79 80 81 82 82 80 77 75 74 73 73 73 73 72 72 72 71 71 71 71 70 66 62 60 58 56 55 54 52 49 45 40 36 32 28 24 24 25 25 26 29 33 38 42 47 52 58 63 66
53 52 53 53 53 53 53 53 54 55 58 62 64 66 68 70 73 76 77 76 76 76 77 77 78 79 80 81 82 81 79 77 75 74 72 71 72 72 72 71 71 71 72 72 72 71 68 64 62 59 56 55 54 52 48 45 41 37 33 30 27 25 25 25 26 28 32 37 41 46 51 56 62 66
54 54 54 54 54 54 55 55 56 58 61 64 66 67 69 71 74 77 77 76 76 77 77 78 78 79 80 81 82 81 78 76 74 73 72 71 71 72 72 72 71 72 74 74 73 72 68 64 62 59 56 55 53 51 49 45 42 40 36 33 30 27 25 25 26 27 31 35 40 44 49 54 60 64
54 56 55 55 56 56 57 58 59 61 64 66 67 68 70 73 76 77 76 75 76 77 78 78 78 78 79 81 82 80 77 75 73 72 72 71 71 72 71 71 71 73 75 75 73 73 69 65 62 60 57 55 53 50 49 46 44 42 40 36 32 29 26 25 25 27 29 34 39 43 47 52 58 62
55 57 57 57 58 59 60 61 62 64 66 67 68 70 72 74 76 76 75 75 76 77 78 79 78 78 79 80 81 80 76 75 73 72 72 71 71 70 69 68 69 71 74 74 72 72 71 65 62 61 58 55 52 49 48 47 45 42 40 38 35 31 27 24 23 25 29 32 38 42 45 50 56 60
55 57 57 58 59 60 62 64 65 66 68 69 71 72 74 75 76 75 75 75 76 77 78 79 79 78 79 80 81 79 76 74 73 73 72 71 70 70 68 67 68 70 72 72 71 71 71 67 63 61 59 56 52 49 47 47 45 42 38 37 36 33 28 24 21 24 28 32 37 41 44 48 54 59
56 57 58 59 60 61 64 66 68 69 70 71 73 74 75 75 75 74 74 74 76 77 78 78 78 79 79 80 80 78 75 73 73 72 71 71 70 70 69 67 67 69 70 70 70 70 70 68 64 61 60 57 52 49 47 46 46 42 37 37 38 34 27 22 20 22 27 31 35 40 43 46 51 57
58 58 58 59 61 63 65 68 70 72 72 73 74 75 75 75 73 73 74 75 76 77 78 78 78 79 80 80 80 77 74 73 72 71 70 70 70 70 69 67 67 69 69 68 68 69 69 68 65 62 61 58 53 49 47 47 46 43 39 37 38 36 29 21 18 21 26 29 34 39 42 44 48 54
59 58 58 59 62 63 65 67 70 72 73 73 74 75 74 73 73 73 74 75 75 76 77 77 78 78 79 80 79 75 73 73 72 71 70 69 69 69 68 67 68 69 69 67 67 68 68 66 65 64 61 58 54 49 47 47 46 44 40 37 36 36 31 23 17 20 25 27 31 37 41 43 46 51
59 59 58 60 63 63 64 66 69 71 72 73 74 74 73 73 73 73 74 75 75 76 76 77 78 78 79 79 77 74 72 72 72 71 71 70 69 69 68 67 67 69 69 67 66 67 66 64 64 64 62 58 54 50 48 47 47 46 42 37 34 33 31 25 18 19 23 25 28 33 39 41 43 48
61 61 60 62 63 63 63 65 67 69 70 71 72 72 72 73 73 74 74 75 75 76 76 77 77 78 79 78 76 72 71 71 71 71 71 70 70 69 67 66 66 67 67 66 65 66 65 62 61 62 62 60 55 51 48 48 48 47 43 39 34 30 28 25 20 17 21 24 24 29 35 39 41 45
60 61 62 62 62 62 62 63 65 66 67 68 70 71 72 73 74 74 75 75 75 75 76 77 77 78 78 78 75 72 70 70 71 71 70 69 69 68 66 64 65 67 67 65 64 64 64 61 59 58 60 60 58 53 49 47 47 46 43 40 36 30 24 23 21 17 18 21 22 24 31 36 39 43
56 58 60 60 60 61 61 62 63 64 66 67 69 70 72 73 74 75 75 75 75 76 76 77 77 78 78 78 75 72 70 70 71 71 70 69 68 67 65 63 64 65 66 65 63 62 61 60 58 56 55 55 55 53 51 47 44 43 41 39 37 33 26 21 20 18 16 18 20 22 27 33 37 41
53 56 58 59 60 61 61 62 64 65 66 68 69 71 72 73 74 75 75 75 76 76 76 77 78 78 78 78 76 72 70 71 71 71 71 69 68 66 64 63 63 64 65 64 61 60 59 58 57 56 54 52 50 50 51 49 44 40 39 37 37 35 29 23 20 18 17 16 18 20 24 30 35 39
55 56 58 59 60 61 62 63 64 66 67 68 70 72 72 73 74 75 75 75 76 76 76 77 78 78 78 78 76 72 71 71 72 72 72 70 68 65 63 62 63 64 64 63 60 59 58 56 55 56 55 53 50 49 50 51 46 41 38 35 33 32 29 24 20 18 17 16 17 19 22 26 32 37
57 59 60 60 60 62 63 64 65 67 68 70 71 72 72 73 74 75 75 75 76 76 76 77 78 78 79 78 76 72 71 71 72 73 73 71 69 65 63 62 62 62 63 62 59 57 57 56 54 53 52 52 50 48 48 50 48 44 40 35 32 30 27 22 19 18 16 15 16 17 19 23 29 36
59 60 62 61 61 62 63 65 66 68 69 70 71 72 72 73 74 74 75 76 76 76 77 77 78 78 78 78 75 72 70 71 72 73 74 72 69 66 63 62 62 62 62 60 57 57 57 55 53 52 50 49 48 47 46 47 46 45 42 37 33 29 25 19 16 16 14 13 14 15 17 20 26 34
60 61 63 63 63 63 64 65 67 68 69 70 71 71 72 73 74 75 75 76 76 77 77 77 78 78 78 77 75 71 70 71 72 73 73 72 69 66 63 62 62 62 60 58 56 56 56 55 54 52 49 47 46 45 44 44 43 42 41 39 34 29 25 21 17 15 13 12 13 14 15 18 24 33
60 61 63 65 65 64 65 66 68 68 69 70 71 72 73 73 74 75 75 76 76 77 77 78 78 78 78 76 73 70 69 70 72 72 72 71 69 66 63 62 62 61 59 57 56 56 55 55 54 54 51 46 44 43 43 43 42 39 38 37 34 29 25 21 18 15 12 10 12 13 14 17 23 32
60 62 63 65 66 66 66 67 68 69 69 70 72 72 73 74 75 75 75 76 76 77 78 78 78 78 77 75 72 69 69 70 71 71 71 70 68 65 62 61 61 60 58 57 57 56 55 54 53 53 52 48 44 42 41 41 41 38 35 34 34 29 24 21 18 16 13 10 10 12 14 17 23 31
60 62 64 65 66 67 67 67 69 70 71 72 73 73 74 75 75 75 75 76 76 77 78 79 79 79 77 74 71 69 68 70 71 71 70 69 66 63 60 58 58 58 58 59 58 56 55 54 52 50 51 50 46 42 39 38 39 37 34 32 31 28 24 20 17 15 13 10 9 11 14 18 23 30
61 63 64 65 66 67 68 68 69 70 71 73 74 74 75 75 75 76 76 76 77 78 79 79 80 79 77 73 70 68 69 70 70 70 69 68 65 61 58 55 54 55 57 59 60 58 56 55 52 49 48 49 47 43 38 37 37 36 33 31 30 28 24 20 17 15 13 10 9 11 15 19 23 30
63 64 65 66 67 68 69 69 70 71 72 73 74 75 75 75 76 76 76 77 77 78 79 80 80 79 75 72 69 68 69 70 70 70 69 66 63 59 56 53 51 52 55 58 59 58 57 57 54 50 47 47 47 44 40 37 36 35 32 30 29 27 25 22 18 15 12 9 8 10 15 19 24 30
64 65 66 66 68 68 69 70 71 72 73 74 75 75 75 76 76 77 77 77 78 78 79 80 80 77 74 70 69 68 69 70 70 69 67 64 60 57 55 52 50 50 53 56 57 55 55 56 56 53 49 47 47 46 43 39 37 35 32 29 27 26 25 22 19 16 12 9 8 10 15 20 24 30
64 65 66 67 68 69 70 71 72 73 73 74 75 76 76 76 77 77 78 78 79 80 80 80 78 75 72 69 69 69 71 71 69 67 64 61 58 55 53 51 50 50 52 54 55 53 52 53 53 52 51 49 48 46 45 43 40 37 34 30 26 24 24 23 20 16 12 10 8 11 15 20 24 29
64 65 66 67 68 69 70 71 72 73 74 75 76 76 77 77 77 78 79 79 80 81 81 79 77 74 71 70 70 71 73 72 69 65 61 58 55 54 53 51 50 50 50 51 52 51 51 50 49 48 48 48 47 45 45 44 41 36 33 31 27 24 23 24 22 18 13 10 9 11 15 20 25 29
64 65 66 67 68 69 70 72 73 74 75 76 77 77 78 78 79 79 80 81 82 82 81 78 75 73 72 72 72 73 73 72 68 62 58 55 53 52 52 51 51 50 48 48 48 49 49 49 47 45 44 45 45 44 43 43 41 37 33 30 28 26 24 23 22 20 15 11 10 11 14 19 25 29
65 65 66 67 69 70 71 73 74 75 77 77 78 78 79 79 80 81 82 82 82 81 79 77 74 73 73 74 74 73 72 70 64 59 54 52 51 51 51 52 51 49 47 46 47 47 47 47 46 44 43 43 43 42 41 41 40 38 35 31 28 27 25 22 21 20 18 13 10 11 14 18 24 29
65 65 66 68 69 71 72 74 75 76 77 78 79 79 80 81 82 83 84 83 82 80 78 76 75 75 75 75 73 71 68 64 60 55 52 50 50 50 50 50 50 49 47 46 46 46 46 46 45 43 43 43 43 40 38 37 36 35 34 31 26 24 24 22 19 18 17 15 12 12 14 17 22 28
65 66 67 69 71 72 74 75 77 77 78 79 80 81 82 83 84 85 84 83 80 78 78 77 77 77 75 73 69 65 61 58 54 52 50 49 48 48 48 48 48 47 46 45 45 44 44 44 43 42 42 43 43 41 38 36 34 31 30 28 24 20 21 21 19 16 16 16 14 13 14 17 21 26
66 67 69 71 73 74 76 77 78 79 80 81 82 82 83 84 85 85 83 81 79 79 79 78 77 75 71 68 63 59 55 52 50 49 48 47 47 47 46 46 46 46 45 44 44 43 43 43 42 42 42 41 42 41 39 38 36 33 30 29 25 21 19 20 20 18 15 15 15 15 15 17 20 24
68 69 71 73 75 76 77 78 79 81 82 83 83 84 85 85 84 83 82 81 80 80 78 76 72 68 65 61 58 54 51 48 47 47 46 45 45 45 45 45 45 44 44 44 43 43 43 43 43 43 42 41 40 41 39 38 37 36 33 30 28 25 21 19 19 19 17 15 14 15 16 17 19 22
71 72 74 75 77 78 79 80 81 82 84 85 86 86 86 84 82 81 81 81 80 77 73 68 64 61 58 56 54 51 49 47 45 45 45 44 44 44 45 45 44 43 43 43 44 44 45 45 45 44 43 41 40 40 39 37 36 35 33 30 28 27 24 20 19 19 18 17 15 15 16 17 19 21
73 75 76 77 79 80 81 82 83 85 86 87 87 86 84 83 81 81 80 78 74 70 65 61 58 56 55 53 52 51 49 46 45 44 44 44 44 45 45 44 44 44 44 44 45 46 47 47 46 45 43 41 40 39 38 36 35 34 33 30 28 28 27 24 20 18 18 18 18 17 17 18 19 21
76 77 78 80 81 82 83 85 86 87 87 86 85 84 83 82 79 77 73 70 66 63 60 58 55 54 53 53 52 51 49 47 46 46 46 45 46 46 45 45 44 45 45 45 46 47 48 48 47 46 44 42 40 39 38 36 35 34 33 30 28 28 28 27 24 21 18 18 18 18 19 19 20 21
Wind_Direction
298 300 302 304 305 307 309 311 312 314 320 324 327 327 326 325 326 327 328 328 330 331 332 331 330 331 333 334 335 336 336 335 335 335 335 334 334 333 333 333 333 333 335 336 335 333 332 332 332 331 330 329 325 319 315 311 307 303 300 298 292 281 271 256 240 233 228 223 221 219 218 217 214 211
298 301 302 304 306 308 310 312 312 315 320 326 329 329 327 326 327 329 330 331 331 332 332 331 331 332 334 335 336 337 337 336 336 335 335 334 334 334 333 333 332 332 334 335 336 335 334 333 333 334 333 332 329 324 319 315 311 306 301 298 292 282 271 259 242 232 227 222 220 219 217 216 214 211
299 301 302 304 307 309 310 311 314 317 322 326 330 330 327 327 328 330 332 333 331 331 331 331 331 333 334 335 336 337 337 337 336 335 334 334 334 334 334 333 332 332 333 334 336 336 336 335 334 335 334 332 330 327 322 317 313 309 303 298 292 282 272 261 246 233 226 222 220 218 216 216 214 211
300 301 303 306 309 310 310 311 315 319 324 327 330 329 328 327 329 332 334 333 331 330 331 331 332 334 335 335 336 337 337 337 335 335 335 334 334 334 334 333 333 333 333 333 336 338 338 336 335 334 334 333 330 327 324 319 314 311 306 299 292 282 272 263 251 235 227 222 219 218 216 215 214 211
300 301 303 306 310 311 311 314 318 322 326 329 330 329 328 328 331 333 334 333 331 330 331 332 333 334 335 335 336 337 337 336 335 335 335 334 334 334 333 333 334 334 333 333 336 339 339 338 336 334 332 332 330 327 325 321 315 311 308 302 293 283 272 262 253 239 228 223 220 218 215 214 213 211
300 301 304 307 310 311 313 318 322 325 327 329 330 329 328 330 332 333 333 332 331 331 331 333 333 334 335 335 336 337 336 335 335 334 334 334 334 333 332 334 335 334 334 334 337 339 340 339 337 333 331 329 328 327 326 324 318 312 307 303 295 284 273 262 254 243 230 223 220 218 215 213 213 211
300 301 304 308 310 313 317 321 324 326 328 329 330 329 329 331 333 333 333 332 331 331 332 333 334 334 335 335 336 336 335 334 334 334 334 333 333 332 333 334 335 335 335 336 337 339 340 339 337 333 330 328 328 328 327 326 323 315 307 303 297 286 275 263 254 245 233 225 221 219 216 213 213 211
299 301 306 309 312 316 320 323 325 326 328 330 330 329 330 332 333 332 332 331 331 331 332 333 333 334 334 335 335 335 335 334 333 333 333 333 333 333 334 335 336 337 337 337 337 338 340 339 337 334 331 329 328 328 328 327 326 320 309 302 297 288 276 265 255 246 236 228 222 219 217 214 213 211
301 305 310 313 315 318 320 322 324 327 329 330 329 329 330 332 331 330 331 331 330 331 332 333 333 333 334 334 335 335 334 333 332 332 333 333 334 335 335 336 338 339 339 337 336 337 339 339 337 335 333 330 329 328 328 327 327 323 314 302 296 289 278 265 256 247 238 230 224 220 218 215 214 212
305 309 312 313 314 317 318 321 323 326 328 329 329 329 330 331 329 329 330 330 330 330 331 332 332 332 333 333 334 334 333 332 331 332 332 333 335 336 337 338 339 340 339 337 335 336 338 339 338 337 335 331 329 328 327 327 326 325 318 306 295 289 280 268 256 248 240 233 226 222 218 216 214 213
305 308 308 310 313 315 317 319 322 325 328 328 328 328 329 329 327 328 329 329 329 330 331 331 331 332 332 332 333 333 332 331 331 331 332 334 336 337 338 338 339 339 339 337 336 335 337 339 339 338 336 332 329 328 327 326 326 325 321 312 300 289 281 271 259 250 242 235 229 224 219 216 215 214
302 304 306 308 312 314 317 319 321 324 326 326 326 327 327 327 326 328 329 328 329 329 330 330 330 331 331 332 332 332 331 330 330 331 332 334 335 336 337 338 338 339 339 338 336 335 336 338 339 337 336 333 330 328 327 327 326 326 323 316 306 294 283 273 263 252 244 238 232 227 222 217 215 214
301 303 306 309 312 314 316 318 321 323 324 325 325 325 326 326 326 327 328 328 328 328 328 329 329 330 330 331 331 331 330 329 329 330 332 334 335 337 337 337 338 339 339 338 336 333 334 337 338 337 337 335 332 330 328 328 328 328 325 318 309 299 288 277 266 255 246 240 235 229 224 219 216 215
300 303 307 310 312 313 314 317 320 322 322 323 323 324 325 325 326 327 327 327 327 327 327 328 328 329 329 330 330 330 329 329 329 331 333 334 335 336 336 336 337 339 339 338 335 332 333 337 337 337 337 336 334 332 329 328 329 329 326 320 311 303 293 282 270 259 248 240 236 232 226 221 218 215
300 303 306 309 310 312 313 315 318 319 320 321 322 324 325 325 325 326 325 325 325 325 326 326 327 328 328 329 330 330 329 328 330 332 333 334 334 335 335 335 337 338 338 337 334 331 332 336 338 337 337 337 336 333 330 328 328 328 326 320 313 306 299 288 275 262 251 240 235 233 228 223 219 216
299 302 304 307 309 310 311 314 316 317 319 320 322 323 324 324 324 324 323 324 324 324 324 325 326 327 327 328 329 329 328 328 330 332 333 332 332 333 333 334 336 337 337 336 334 331 331 335 337 337 337 337 336 334 331 328 327 328 328 322 315 310 304 296 281 264 252 242 234 232 229 224 220 217
299 302 304 306 308 310 311 313 315 317 318 319 320 321 322 322 322 322 321 322 322 323 324 325 325 326 326 328 329 328 327 329 330 331 331 331 331 331 332 334 336 337 337 336 334 331 332 335 336 337 337 337 336 335 332 329 328 329 330 327 319 314 310 301 284 266 254 244 235 232 230 225 220 217
301 304 306 307 309 310 311 312 313 315 317 317 318 319 319 319 319 320 320 321 321 322 323 323 324 325 326 327 328 327 327 328 330 330 330 329 329 329 331 334 336 337 337 336 333 332 333 334 335 337 338 337 336 335 333 331 329 330 331 329 322 318 316 307 285 267 257 247 237 232 229 226 220 217
302 305 308 309 309 310 309 309 311 312 313 314 315 316 316 317 318 319 319 319 320 321 322 322 323 324 325 327 327 327 326 327 328 329 328 328 328 328 330 334 335 336 336 335 334 332 333 335 335 336 337 337 335 335 335 332 330 330 330 330 324 318 317 312 290 268 260 251 240 233 230 226 220 216
302 306 309 308 307 307 307 307 307 308 310 311 312 313 314 316 317 317 317 318 319 320 321 321 322 323 324 326 327 326 325 326 327 327 327 327 327 328 330 333 334 335 335 335 333 332 333 335 336 335 336 336 335 335 336 334 332 330 330 330 325 319 315 311 297 273 263 257 245 235 231 227 221 216
301 305 307 305 304 304 304 304 304 305 307 309 310 312 313 315 315 315 316 318 319 319 320 320 321 322 324 325 325 324 323 324 325 326 326 326 327 327 329 331 333 334 335 334 333 332 332 335 336 335 335 335 335 335 336 336 333 330 330 329 327 322 315 310 301 281 266 261 251 238 231 228 221 216
298 301 302 302 301 301 301 302 303 304 306 307 309 311 312 312 313 314 316 317 318 318 319 319 320 321 323 324 324 322 322 323 324 324 325 325 326 326 327 330 332 334 335 334 333 331 331 333 336 337 337 336 335 334 335 336 334 331 329 328 327 324 319 310 302 290 272 263 255 241 231 227 221 215
298 298 298 299 299 299 300 302 303 304 306 307 309 310 310 311 313 314 315 316 317 317 318 318 319 320 322 324 323 322 322 322 323 323 323 324 325 325 326 329 331 333 334 333 332 330 330 332 335 336 338 337 334 332 333 335 335 332 330 329 328 327 324 316 306 297 282 266 257 244 231 225 220 214
297 296 296 297 298 299 301 303 303 305 306 307 308 309 310 311 312 313 314 315 315 316 317 317 318 320 322 323 323 322 321 321 321 322 322 324 324 324 325 328 330 332 333 332 331 329 329 332 335 336 338 338 336 333 332 333 335 334 333 333 331 328 325 320 310 301 290 272 256 244 232 225 218 212
295 295 296 297 299 301 302 303 303 304 306 306 307 308 309 310 311 312 313 314 314 315 316 317 318 320 322 323 323 321 320 320 320 321 322 323 324 324 325 327 329 331 332 331 330 329 329 332 335 336 337 338 337 336 334 334 335 335 334 334 333 329 325 321 312 302 293 276 257 244 234 225 216 210
295 296 297 298 300 301 302 302 303 304 305 306 307 308 309 310 310 311 312 312 313 314 315 316 318 320 322 322 322 320 319 319 320 320 321 322 323 324 325 327 328 330 330 330 330 329 330 332 335 336 338 339 338 338 337 336 335 335 334 335 336 332 326 320 311 302 291 276 258 244 235 226 215 208
296 297 298 299 300 300 301 301 302 303 304 305 306 307 308 309 309 310 311 312 313 314 315 316 318 320 321 321 320 319 318 318 319 319 320 321 322 323 325 327 328 329 329 329 330 330 330 332 334 335 338 340 339 338 338 337 336 334 333 335 337 335 329 322 314 305 294 275 257 244 234 223 212 205
297 298 298 299 299 300 300 300 301 302 303 304 305 306 307 308 309 310 310 311 313 314 315 316 318 319 320 320 319 318 317 317 318 318 319 320 321 322 325 327 327 327 328 329 330 331 331 332 334 334 337 340 340 339 338 337 337 336 334 333 336 339 335 328 321 314 302 279 256 244 231 218 207 203
298 298 298 298 299 300 300 301 301 302 303 304 305 306 307 308 309 309 310 311 312 313 314 316 317 318 319 318 317 316 316 316 317 317 318 318 320 321 324 325 325 326 327 329 330 330 330 332 334 334 335 339 341 341 339 338 337 337 335 333 334 338 338 332 324 318 309 286 259 243 226 210 203 200
298 298 298 298 300 300 301 302 303 303 304 305 306 307 307 308 308 309 310 311 312 313 314 315 316 317 318 317 316 315 314 314 315 316 317 317 318 320 322 324 324 325 327 329 329 329 330 331 334 334 334 336 341 342 341 338 337 336 336 334 334 337 339 336 329 323 315 294 263 241 218 201 197 197
297 298 298 299 300 301 302 303 303 304 305 305 306 306 307 307 308 309 310 310 311 312 313 314 315 316 316 316 314 313 313 313 315 316 316 315 316 318 321 323 323 325 327 328 328 328 328 330 332 334 333 334 338 341 341 339 338 337 336 335 334 336 339 338 333 327 319 299 266 236 209 193 191 194
297 298 299 300 301 302 302 303 304 304 305 305 305 305 306 307 308 308 309 310 311 311 312 313 314 315 315 314 313 312 312 312 314 315 314 313 314 316 319 321 323 325 327 328 327 327 327 328 330 333 333 333 334 338 341 341 340 338 338 337 336 337 341 342 338 331 320 302 269 230 203 189 187 192
296 297 298 299 300 301 302 303 303 304 304 304 304 305 306 307 307 307 308 309 310 310 311 312 313 314 313 313 312 311 311 311 313 313 312 312 313 315 317 320 322 324 327 327 326 325 326 327 328 331 332 332 333 336 339 342 341 339 339 340 338 337 340 343 341 334 322 303 269 229 202 189 187 191
295 296 297 298 300 300 301 302 302 303 303 303 304 304 305 305 306 306 307 308 309 309 310 311 312 312 312 311 310 310 309 310 311 311 311 311 312 313 315 318 321 323 325 325 324 323 324 326 327 329 330 331 333 335 337 340 341 339 339 340 340 338 338 341 342 336 323 304 270 232 207 193 190 192
294 295 296 297 298 299 300 301 302 302 302 303 303 304 304 304 305 306 306 307 308 309 310 310 311 311 310 309 309 308 308 308 310 311 310 311 312 312 314 317 319 321 323 323 321 322 323 324 325 327 328 330 332 334 336 337 338 338 336 336 338 339 338 337 338 335 324 303 271 238 215 201 194 194
295 295 295 296 297 298 299 300 301 301 302 302 303 303 303 304 305 305 306 307 308 309 309 309 309 309 308 307 307 307 307 308 310 310 310 310 310 311 313 315 317 319 321 320 319 320 321 322 324 325 326 327 329 331 333 333 334 334 334 333 334 338 339 336 333 331 325 304 274 246 225 211 201 198
295 295 295 295 296 297 298 299 300 301 302 302 302 303 303 304 305 305 306 307 308 308 308 308 308 308 307 307 307 307 307 308 309 310 310 309 309 310 311 313 315 317 318 318 317 318 319 320 322 323 324 324 326 329 330 330 330 331 332 332 333 334 334 331 327 324 320 306 278 252 234 222 211 204
296 295 295 295 296 297 298 300 301 301 301 302 302 302 303 304 305 305 306 306 307 307 307 307 307 306 306 306 306 306 306 307 308 309 309 308 308 308 309 311 313 314 315 315 315 316 317 318 319 321 322 322 324 326 328 328 327 327 327 330 332 330 325 322 320 318 315 306 283 258 240 229 221 212
296 296 296 296 297 298 299 300 300 301 301 301 302 302 303 304 304 305 305 306 306 306 305 305 305 305 305 305 305 305 305 306 307 308 308 307 306 307 308 309 310 311 312 313 313 314 315 316 317 319 320 321 321 322 324 324 323 322 320 322 325 324 318 314 312 311 308 303 289 265 245 234 227 220
296 296 296 297 297 298 299 299 300 300 301 301 302 302 303 304 304 304 305 305 305 304 304 304 304 304 304 304 304 304 304 305 306 307 306 306 305 306 307 307 308 309 310 310 311 312 314 315 316 317 319 319 318 319 320 321 320 317 314 314 317 320 318 313 309 306 303 298 290 273 254 239 231 226
297 297 297 297 298 298 299 300 300 300 301 301 302 302 303 303 303 304 304 304 303 303 303 303 304 303 303 303 303 303 304 305 305 305 304 304 304 305 305 306 306 307 308 309 310 312 313 313 314 316 316 317 317 317 319 320 319 317 316 316 316 319 321 317 309 304 299 293 287 277 262 247 236 229
297 297 297 298 298 299 299 300 300 300 301 301 301 302 302 302 302 302 302 302 302 302 302 302 302 302 302 302 302 303 304 304 304 303 302 302 302 303 303 304 305 306 308 309 310 311 312 312 314 314 314 315 316 316 317 318 318 316 316 316 316 317 319 318 310 302 295 289 282 275 266 255 243 234
297 297 298 298 298 299 299 300 300 300 300 300 301 301 301 301 301 301 301 301 301 301 301 301 301 301 301 301 301 301 302 302 302 301 300 300 300 300 301 302 304 305 307 308 309 310 311 312 312 312 312 314 314 313 314 315 315 313 312 313 313 314 315 315 312 304 296 289 282 273 265 259 250 241
297 297 298 298 299 299 299 299 299 299 300 300 300 300 300 300 300 300 300 300 300 300 300 300 300 299 299 298 298 299 299 300 300 299 299 299 299 299 300 302 303 305 306 307 308 309 309 310 310 310 311 311 312 311 312 313 313 311 310 310 311 311 311 310 309 304 295 287 281 274 266 260 253 247
297 298 298 298 298 298 299 299 299 299 300 300 300 300 300 300 299 299 299 298 298 299 299 299 298 297 296 296 296 297 298 298 298 298 298 298 298 299 300 301 302 304 305 305 306 307 307 308 308 309 309 310 310 310 310 311 310 309 309 308 308 308 308 306 305 302 294 283 276 271 266 260 255 250